User: anonymous   Login
Location: Trois-Rivi�res
(46.3500°N, 72.5500°W)
Time: 19:21:20
(UTC-04:00)
Language:

SJ-11-01 - Orbit

View from above orbital plane
View from above orbital plane
View from above satellite
View from above satellite

Ground track
Ground track

The orbit data is extracted from the following two-line orbital elements,

1 36088U 09061A   18109.74414467  .00000052  00000-0  20325-4 0  9990
2 36088  98.0929 156.1203 0012667  34.3432 325.8582 14.60014150449375
Epoch (UTC): 19 April 2018 17:51:34
Eccentricity: 0.0012667
inclination: 98.0929°
perigee height: 684 km
apogee height: 702 km
right ascension of ascending node: 156.1203°
argument of perigee: 34.3432°
revolutions per day: 14.60014150
mean anomaly at epoch: 325.8582°
orbit number at epoch: 44937

The dashed part of the orbit path shows where the satellite is in the earth's shadow,  

DLR